Location: Branche des Alpilles
(43.6087°N, 4.6976°E)
Time: 11:12:16
(UTC+00:00)

Envisat - Pass Details

Date: 01 October 2021
Orbit: 764 x 766 km, 98.2° (Epoch: 20 October)

Event Time Altitude Azimuth Distance (km) Brightness Sun altitude
Rises 03:35:02 0° 30° (NNE) 3,239 7.0 -22.9°
Reaches altitude 10° 03:38:15 10° 52° (NE) 2,307 6.4 -22.4°
Maximum altitude 03:41:22 16° 90° (E) 1,904 5.9 -21.8°
Drops below altitude 10° 03:44:29 10° 128° (SE) 2,296 5.9 -21.3°
Sets 03:47:39 0° 149° (SSE) 3,216 6.4 -20.7°
